Location: Marengo
(51.4813°N, 109.7825°W)
Time: 23:53:30
(UTC+00:00)

Envisat - Pass Details

Date: 26 January 2022
Orbit: 764 x 765 km, 98.2° (Epoch: 22 May)

Event Time Altitude Azimuth Distance (km) Brightness Sun altitude
Rises 12:36:03 0° 13° (NNE) 3,244 6.4 -23.1°
Reaches altitude 10° 12:38:22 10° 12° (NNE) 2,313 5.6 -22.7°
Maximum altitude 12:43:28 78° 287° (WNW) 788 2.8 -21.9°
Drops below altitude 10° 12:48:31 10° 202° (SSW) 2,298 5.3 -21.1°
Sets 12:50:49 0° 201° (SSW) 3,220 6.1 -20.8°
